Flag for Switzerland Weather past 2 weeks in Schaffhausen, Schaffhausen, Switzerland

Now
37 °F

Chilly.


Feels Like: 32 °F
Forecast: 33 / 44 °F
Wind: 6 mph from Southeast

Location: Zurich-Kloten

Current Time: Mar 1, 2015 at 6:12:56 AM

Latest Report: Mar 1, 2015 at 5:00 AM


Visibility: N/A

Pressure: 29.99 "Hg

Humidity: 75%

Dew point: 30 °F

Location of SchaffhausenLocation

Historic Weather in Schaffhausen — Graph

°F

Schaffhausen temperature yesterday

Maximum temperature yesterday: 41 °F (at 4:00 PM)
Minimum temperature yesterday: 30 °F (at 11:00 PM)
Average temperature yesterday: 36 °F

Past Weeks' High & Low Weather Summary

 TemperatureHumidityPressure
High52 °F (Feb 20, 3:00 PM)98% (Feb 22, 6:00 AM)30.76 "Hg (Feb 22, 6:00 AM)
Low24 °F (Feb 26, 6:00 AM)31% (Feb 20, 3:00 PM)29.59 "Hg (Feb 21, 11:00 AM)
Average34 °F83%30.09 "Hg
* Reported Feb 14 5:00 AM — Mar 1 5:00 AM, Schaffhausen, Weather by CustomWeather, © 2015

Note: Actual official high and low records may vary slightly from our data, if they occured in-between our weather recording intervals... More about our weather records

Advertising

Schaffhausen weather history for previous 24 hours

 ConditionsComfort  
Time TempWeatherWind HumidityBarometerVisibility
5:00 AM
Sun, Mar 1
37 °FChilly.6 mph75%29.99 "HgN/A
3:00 AM33 °FChilly.6 mph87%30.02 "HgN/A
2:00 AM31 °FChilly.6 mph90%30.05 "HgN/A
1:00 AM30 °FFog.5 mph92%30.07 "Hg6 mi
12:00 AM29 °FChilly.2 mph95%30.09 "HgN/A
11:00 PM
Sat, Feb 28
30 °FChilly.5 mph92%30.11 "HgN/A
10:00 PM31 °FPassing clouds.1 mph95%30.14 "Hg9 mi
9:00 PM31 °FChilly.2 mph94%30.14 "HgN/A
8:00 PM35 °FChilly.1 mph87%30.13 "HgN/A
7:00 PM36 °FPassing clouds.2 mph84%30.13 "Hg12 mi
6:00 PM40 °FChilly.1 mph71%30.11 "HgN/A
5:00 PM41 °FQuite cool.2 mph68%30.11 "HgN/A
4:00 PM41 °FOvercast.2 mph72%30.12 "Hg12 mi
3:00 PM41 °FQuite cool.6 mph74%30.14 "HgN/A
2:00 PM41 °FQuite cool.7 mph77%30.14 "HgN/A
1:00 PM41 °FPartly sunny.5 mph68%30.16 "Hg10 mi
12:00 PM40 °FChilly.6 mph80%30.18 "HgN/A
11:00 AM39 °FChilly.7 mph82%30.19 "HgN/A
10:00 AM36 °FFog.2 mph89%30.22 "Hg3 mi
9:00 AM35 °FChilly.3 mph94%30.22 "HgN/A
8:00 AM34 °FChilly.2 mph96%30.22 "HgN/A
7:00 AM33 °FLight rain. Low clouds.2 mph98%30.21 "Hg2 mi
6:00 AM34 °FChilly.2 mph97%30.21 "HgN/A
Weather by CustomWeather, © 2015

See weather overviewHow to use our weather pages